Location: Giessen
(50.5800°N, 8.7028°E)
Time: 03:01:53
(UTC+01:00)

ISS - Visible Passes

Search period start: 19 December 2018 00:00
Search period end: 29 December 2018 00:00
Orbit: 401 x 408 km, 51.6° (Epoch: 19 December)

Date Brightness Start Highest point End Pass type
(mag) Time Alt. Az. Time Alt. Az. Time Alt. Az.
24 Dec -0.8 06:56:29 10° S 06:58:39 17° SE 07:00:50 10° E visible
25 Dec -0.3 06:06:16 10° SE 06:06:40 10° SE 06:07:06 10° SE visible
25 Dec -2.5 07:39:21 10° SW 07:42:30 44° SSE 07:45:40 10° E visible
26 Dec -1.9 06:47:27 10° SSW 06:50:22 29° SSE 06:53:17 10° E visible
27 Dec -1.3 05:56:44 14° S 05:58:16 19° SE 06:00:44 10° E visible
27 Dec -3.6 07:31:05 10° WSW 07:34:22 72° SSE 07:37:39 10° ENE visible
28 Dec -0.4 05:07:12 11° ESE 05:07:12 11° ESE 05:07:39 10° ESE visible
28 Dec -3.1 06:39:54 18° SW 06:42:08 50° SSE 06:45:20 10° E visible
